DW3003 Weather Reports


time (UTC)temp
C
wind
direction
speed
KPH
gust
KPH
rain 1hr
cm
rain 24hr
cm
rain mn
cm
humidity
%
barometer
mb
20260503002057 10 131 4.8 11.3 0.00 0.00 0.00 90 1011.1
20260503001600 10 131 8.0 11.3 0.00 0.00 0.00 89 1011.0
20260503001057 10 131 6.4 11.3 0.00 0.00 0.00 89 1011.0
20260503000556 10 142 6.4 11.3 0.00 0.00 0.00 89 1010.9
20260503000109 10 140 6.4 11.3 0.00 0.00 0.00 89 1010.8
20260502235556 10 123 3.2 6.4 0.00 0.00 0.00 89 1010.9
20260502235056 10 105 3.2 6.4 0.00 0.00 0.00 88 1010.7
20260502234559 10 105 3.2 8.0 0.00 0.00 0.00 88 1010.7
20260502234057 10 77 3.2 8.0 0.00 0.00 0.00 88 1010.8
20260502233556 10 131 4.8 8.0 0.00 0.00 0.00 88 1010.8
20260502233101 10 131 3.2 6.4 0.00 0.00 0.00 88 1011.0
20260502232557 10 131 4.8 9.7 0.00 0.00 0.00 88 1010.9
20260502232057 10 115 4.8 9.7 0.00 0.00 0.00 87 1010.9
20260502231602 10 127 6.4 9.7 0.00 0.00 0.00 87 1010.9
20260502231057 10 125 4.8 8.0 0.00 0.00 0.00 86 1010.9
20260502230557 10 129 4.8 8.0 0.00 0.00 0.00 85 1010.9
20260502230059 10 127 4.8 8.0 0.00 0.00 0.00 85 1010.9
20260502225556 10 110 4.8 8.0 0.00 0.00 0.00 84 1010.9
20260502225057 10 138 4.8 8.0 0.00 0.00 0.00 84 1011.0
20260502224558 10 129 3.2 8.0 0.00 0.00 0.00 85 1011.0
20260502224057 10 126 4.8 9.7 0.00 0.00 0.00 84 1010.9
20260502223557 10 123 4.8 12.9 0.00 0.00 0.00 84 1010.9
20260502223059 10 123 8.0 12.9 0.00 0.00 0.00 84 1010.9
20260502222558 11 110 9.7 12.9 0.00 0.00 0.00 83 1010.9
20260502222101 11 150 3.2 6.4 0.00 0.00 0.00 83 1010.9
20260502221558 11 150 3.2 6.4 0.00 0.00 0.00 83 1010.8
20260502221058 11 150 3.2 8.0 0.00 0.00 0.00 84 1010.7
20260502220557 11 150 3.2 8.0 0.00 0.00 0.00 83 1010.8
20260502220058 11 150 4.8 6.4 0.00 0.00 0.00 83 1010.8
20260502215557 11 142 3.2 6.4 0.00 0.00 0.00 83 1010.9
20260502215058 11 142 4.8 8.0 0.00 0.00 0.00 84 1010.9
20260502214555 11 142 4.8 8.0 0.00 0.00 0.00 84 1010.9
20260502214057 11 132 4.8 9.7 0.00 0.00 0.00 84 1010.9
20260502213557 11 128 4.8 11.3 0.00 0.00 0.00 84 1010.8
20260502213057 11 122 4.8 11.3 0.00 0.00 0.00 83 1010.8
20260502212557 11 115 0.0 3.2 0.00 0.00 0.00 82 1010.7
20260502212057 11 0 0.0 4.8 0.00 0.00 0.00 83 1010.8
20260502211559 11 0 0.0 4.8 0.00 0.00 0.00 82 1010.7
20260502211124 11 0 0.0 1.6 0.00 0.00 0.00 82 1010.8
20260502210559 11 0 0.0 3.2 0.00 0.00 0.00 83 1010.8
20260502210056 11 0 0.0 6.4 0.00 0.00 0.00 83 1010.9
20260502205556 11 0 0.0 6.4 0.00 0.00 0.00 84 1011.0
20260502205057 10 149 4.8 8.0 0.00 0.00 0.00 84 1010.9
20260502204615 10 149 4.8 8.0 0.00 0.00 0.00 85 1010.7
20260502204057 10 149 3.2 8.0 0.00 0.00 0.00 86 1010.8
20260502203557 10 149 4.8 8.0 0.00 0.00 0.00 86 1010.9
20260502203059 10 149 1.6 4.8 0.00 0.00 0.00 86 1010.9
20260502202557 10 0 0.0 3.2 0.00 0.00 0.00 87 1011.0
20260502202057 10 0 0.0 6.4 0.00 0.00 0.00 88 1011.1
20260502201559 10 0 1.6 8.0 0.00 0.00 0.00 90 1011.1
20260502201057 10 149 3.2 9.7 0.00 0.00 0.00 90 1011.0
20260502200557 10 149 4.8 9.7 0.00 0.00 0.00 90 1011.0
20260502200058 10 149 6.4 12.9 0.00 0.00 0.00 90 1011.2
20260502195556 10 149 8.0 12.9 0.00 0.00 0.00 91 1011.2
20260502195056 10 149 6.4 12.9 0.00 0.00 0.00 91 1011.2
20260502194604 10 149 8.0 14.5 0.00 0.00 0.00 91 1011.2
20260502194056 10 149 9.7 16.1 0.00 0.00 0.00 92 1011.3
20260502193556 10 149 11.3 16.1 0.00 0.00 0.00 92 1011.4
20260502193100 10 146 12.9 16.1 0.00 0.00 0.00 92 1011.4
20260502192558 10 141 12.9 16.1 0.00 0.00 0.00 92 1011.4
20260502192058 9 138 12.9 16.1 0.00 0.00 0.00 92 1011.5
20260502191602 10 129 11.3 16.1 0.00 0.00 0.00 92 1011.6
20260502191100 10 133 12.9 16.1 0.00 0.00 0.00 92 1011.6
20260502190559 10 140 9.7 14.5 0.00 0.00 0.00 92 1011.7
20260502190057 10 115 9.7 14.5 0.00 0.00 0.00 91 1011.7
20260502185600 10 144 8.0 14.5 0.00 0.00 0.00 91 1011.7
20260502185057 10 144 8.0 14.5 0.00 0.00 0.00 91 1011.7
20260502184557 10 134 9.7 14.5 0.00 0.00 0.00 92 1011.8
20260502184057 10 136 8.0 16.1 0.00 0.00 0.00 91 1011.8
20260502183556 10 127 11.3 16.1 0.00 0.00 0.00 91 1012.0
20260502183056 10 129 11.3 14.5 0.00 0.00 0.00 91 1011.9
20260502182558 10 121 9.7 12.9 0.00 0.00 0.00 90 1011.8
20260502182057 10 139 6.4 11.3 0.00 0.00 0.00 90 1011.9
20260502181555 10 143 4.8 9.7 0.00 0.00 0.00 89 1011.9
20260502181057 10 157 6.4 11.3 0.00 0.00 0.00 89 1011.8
20260502180557 10 121 6.4 11.3 0.00 0.00 0.00 89 1011.7
20260502164057 10 187 4.8 11.3 0.00 0.00 0.00 89 1012.2
20260502163558 10 150 4.8 11.3 0.00 0.00 0.00 89 1012.2
20260502163103 10 193 4.8 11.3 0.00 0.00 0.00 89 1012.3
20260502162557 10 191 3.2 12.9 0.00 0.00 0.00 89 1012.2
20260502162058 10 163 3.2 12.9 0.00 0.00 0.00 89 1012.3
20260502161558 10 171 3.2 12.9 0.00 0.00 0.00 89 1012.3
20260502161056 10 168 3.2 12.9 0.00 0.00 0.00 89 1012.4
20260502160556 10 200 3.2 11.3 0.00 0.00 0.00 89 1012.4
20260502152058 10 196 9.7 19.3 0.00 0.00 0.00 89 1012.8
20260502151600 10 168 9.7 19.3 0.00 0.00 0.00 89 1012.8
20260502151058 9 177 11.3 19.3 0.00 0.00 0.00 89 1012.8
20260502150557 9 159 9.7 17.7 0.00 0.00 0.00 89 1012.8
20260502150111 9 163 11.3 17.7 0.00 0.00 0.00 89 1012.8
20260502130559 10 177 11.3 19.3 0.00 0.00 0.00 86 1013.0
20260502130111 10 140 14.5 16.1 0.00 0.00 0.00 87 1013.0
20260502123556 10 138 11.3 17.7 0.00 0.03 0.00 86 1012.8
20260502123103 10 136 12.9 16.1 0.00 0.03 0.00 86 1012.9
20260502122557 10 135 9.7 16.1 0.00 0.03 0.00 85 1013.0
20260502122057 10 171 9.7 16.1 0.00 0.03 0.00 84 1012.9
20260502121558 10 141 11.3 16.1 0.00 0.03 0.00 85 1013.0
20260502121058 10 145 8.0 14.5 0.00 0.03 0.00 83 1013.0
20260502120559 10 0 3.2 12.9 0.00 0.03 0.00 82 1013.0
20260502115557 10 194 4.8 14.5 0.00 0.03 0.00 83 1013.2
20260502115101 10 200 4.8 14.5 0.00 0.03 0.00 83 1013.2
20260502114557 10 202 8.0 17.7 0.00 0.03 0.00 83 1013.2
20260502114057 10 181 8.0 17.7 0.00 0.03 0.00 83 1013.1
20260502113557 10 199 8.0 17.7 0.00 0.03 0.00 83 1013.2
20260502113059 10 177 11.3 17.7 0.00 0.03 0.00 83 1013.2
20260502112556 10 193 8.0 14.5 0.00 0.03 0.00 83 1013.0
20260502112056 10 201 6.4 17.7 0.00 0.03 0.00 83 1013.0
20260502111558 10 202 9.7 17.7 0.00 0.03 0.00 83 1013.1
20260502111057 10 176 6.4 17.7 0.00 0.03 0.00 84 1012.9
20260502110557 10 175 8.0 17.7 0.00 0.03 0.00 84 1012.8
20260502110055 9 175 6.4 14.5 0.00 0.03 0.00 84 1012.8
20260502105559 9 157 8.0 16.1 0.00 0.03 0.00 84 1012.7
20260502105057 9 208 8.0 17.7 0.00 0.03 0.00 84 1012.8
20260502104558 9 190 8.0 17.7 0.00 0.03 0.00 84 1012.7
20260502104057 9 191 8.0 17.7 0.00 0.03 0.00 85 1012.5
20260502103559 9 186 9.7 17.7 0.00 0.03 0.00 85 1012.6
20260502103058 9 172 6.4 12.9 0.00 0.03 0.00 85 1012.6
20260502102558 9 192 4.8 17.7 0.00 0.03 0.00 85 1012.6
20260502102057 9 186 8.0 17.7 0.00 0.03 0.00 85 1012.7
20260502101556 9 183 8.0 17.7 0.00 0.03 0.00 86 1012.8
20260502101058 9 177 9.7 17.7 0.00 0.03 0.00 86 1012.7
20260502100557 9 171 8.0 16.1 0.00 0.03 0.00 86 1012.7
20260502091059 9 194 8.0 20.9 0.00 0.03 0.00 85 1012.9
20260502090557 9 169 9.7 19.3 0.00 0.03 0.00 85 1012.8
20260502080106 8 192 8.0 16.1 0.00 0.03 0.00 86 1012.8
20260502071056 9 177 4.8 12.9 0.00 0.03 0.00 84 1012.7
20260502070558 9 156 4.8 14.5 0.00 0.03 0.00 84 1012.8
20260502070057 9 166 6.4 14.5 0.00 0.03 0.00 84 1012.8
20260502065558 9 179 6.4 14.5 0.00 0.03 0.00 84 1012.8
20260502065058 9 190 6.4 16.1 0.00 0.03 0.00 84 1013.0
20260502064600 9 179 8.0 16.1 0.00 0.03 0.00 84 1013.1
20260502064057 9 192 8.0 14.5 0.00 0.03 0.00 83 1013.2
20260502063558 9 177 3.2 12.9 0.00 0.03 0.00 83 1013.2
20260502063119 9 174 4.8 12.9 0.00 0.03 0.00 83 1013.1
20260502062557 9 180 6.4 16.1 0.00 0.03 0.00 82 1013.2
20260502062057 9 184 8.0 16.1 0.00 0.03 0.00 82 1013.3
20260502061559 9 165 8.0 20.9 0.00 0.03 0.00 82 1013.3
20260502061056 9 175 12.9 20.9 0.00 0.03 0.00 82 1013.5
20260502060557 9 158 14.5 20.9 0.00 0.03 0.00 81 1013.2
20260502060059 9 153 14.5 19.3 0.00 0.03 0.00 80 1013.2
20260502055559 9 192 12.9 19.3 0.00 0.03 0.00 80 1013.2
20260502055059 9 165 11.3 20.9 0.00 0.03 0.00 79 1013.3
20260502054606 10 156 14.5 20.9 0.00 0.03 0.00 78 1013.3
20260502054057 10 167 12.9 20.9 0.00 0.03 0.00 79 1013.2
20260502053557 10 162 8.0 19.3 0.00 0.03 0.00 78 1013.2
20260502053102 10 159 11.3 20.9 0.00 0.03 0.00 78 1013.3
20260502052558 9 171 11.3 20.9 0.00 0.03 0.00 79 1013.5
20260502052101 9 189 12.9 20.9 0.00 0.03 0.00 79 1013.4
20260502051557 9 186 12.9 20.9 0.00 0.03 0.00 79 1013.4
20260502051058 10 173 11.3 19.3 0.00 0.03 0.00 80 1013.4
20260502050557 10 155 12.9 19.3 0.00 0.03 0.00 82 1013.4
20260502050057 9 161 8.0 16.1 0.00 0.03 0.00 81 1013.5
20260502045556 9 169 8.0 16.1 0.00 0.03 0.00 81 1013.4
20260502045058 9 165 9.7 16.1 0.00 0.03 0.00 82 1013.4
20260502044557 9 171 11.3 16.1 0.00 0.03 0.00 83 1013.5
20260502044057 9 162 8.0 16.1 0.00 0.03 0.00 83 1013.7
20260502043556 9 165 6.4 16.1 0.00 0.03 0.00 83 1013.6
20260502043103 9 174 6.4 16.1 0.00 0.03 0.00 83 1013.7
20260502042557 9 188 9.7 20.9 0.00 0.03 0.00 82 1013.7
20260502042056 9 161 9.7 20.9 0.00 0.03 0.00 82 1013.7
20260502041602 9 184 12.9 20.9 0.00 0.03 0.00 82 1013.7
20260502041057 9 169 12.9 19.3 0.00 0.03 0.00 82 1013.7
20260502040557 9 165 11.3 17.7 0.00 0.03 0.00 82 1013.8
20260502040105 9 188 9.7 17.7 0.00 0.03 0.00 81 1013.7
20260502035557 9 160 8.0 14.5 0.00 0.03 0.03 82 1013.7
20260502035058 9 187 8.0 14.5 0.00 0.03 0.03 81 1013.7
20260502034559 9 172 8.0 14.5 0.00 0.03 0.03 80 1013.6
20260502034057 9 192 8.0 16.1 0.00 0.03 0.03 81 1013.6
20260502033556 9 173 8.0 16.1 0.00 0.03 0.03 80 1013.7
20260502033057 9 186 8.0 17.7 0.00 0.03 0.03 81 1013.8
20260502032556 9 169 8.0 17.7 0.00 0.03 0.03 81 1013.9
20260502032057 9 184 11.3 17.7 0.00 0.03 0.03 81 1013.8
20260502031600 9 178 9.7 20.9 0.00 0.03 0.03 81 1013.9
20260502031057 9 167 11.3 20.9 0.00 0.03 0.03 80 1014.0
20260502030558 9 161 12.9 20.9 0.00 0.03 0.03 80 1014.0
20260502030101 9 181 8.0 22.5 0.00 0.03 0.03 79 1014.0
20260502025557 9 190 8.0 22.5 0.00 0.03 0.03 79 1014.0
20260502025101 9 190 8.0 22.5 0.00 0.03 0.03 78 1014.0
20260502024606 9 200 12.9 19.3 0.00 0.03 0.03 77 1013.9
20260502024058 9 180 9.7 19.3 0.00 0.03 0.03 77 1014.0
20260502023557 9 163 9.7 19.3 0.00 0.03 0.03 77 1013.9
20260502023057 9 196 11.3 17.7 0.00 0.03 0.03 78 1014.0
20260502022557 9 178 6.4 17.7 0.00 0.03 0.03 79 1013.8
20260502022057 9 188 8.0 17.7 0.00 0.03 0.03 79 1013.8
20260502021556 9 188 8.0 17.7 0.00 0.03 0.03 80 1013.8
20260502021057 9 179 8.0 14.5 0.00 0.03 0.03 80 1013.8
20260502020558 9 193 6.4 14.5 0.00 0.03 0.03 80 1013.8
20260502020058 9 212 8.0 14.5 0.00 0.03 0.03 80 1013.8
20260502015600 9 182 6.4 14.5 0.00 0.03 0.03 80 1013.7
20260502015058 9 175 6.4 14.5 0.00 0.03 0.03 80 1013.6
20260502014559 9 190 4.8 9.7 0.00 0.03 0.03 79 1013.4
20260502014057 9 167 4.8 16.1 0.00 0.03 0.03 80 1013.4
20260502013557 9 206 6.4 16.1 0.00 0.03 0.03 79 1013.5
20260502013057 9 184 8.0 14.5 0.00 0.03 0.03 79 1013.5
20260502012557 9 177 8.0 14.5 0.00 0.03 0.03 79 1013.4
20260502012057 9 186 4.8 14.5 0.00 0.03 0.03 79 1013.4
20260502011602 9 181 8.0 16.1 0.00 0.03 0.03 79 1013.4
20260502011058 9 177 6.4 16.1 0.00 0.03 0.03 79 1013.3
20260502010557 9 169 8.0 16.1 0.00 0.03 0.03 79 1013.3
20260502010059 9 173 6.4 16.1 0.00 0.03 0.03 79 1013.3
20260502005558 9 179 8.0 19.3 0.00 0.03 0.03 79 1013.3
20260502005058 9 174 8.0 19.3 0.00 0.03 0.03 78 1013.3
20260502004604 10 196 9.7 19.3 0.00 0.03 0.03 78 1013.4
20260502004059 9 200 9.7 19.3 0.00 0.03 0.03 78 1013.4
20260502003557 9 184 9.7 20.9 0.00 0.03 0.03 78 1013.3
20260502003100 9 186 11.3 20.9 0.00 0.03 0.03 78 1013.2
20260502002558 9 182 11.3 19.3 0.00 0.03 0.03 78 1013.2